TITAN 3C TRANSTAGE DEB, 2050

Orbit data source: Space-Track

TITAN 3C TRANSTAGE DEB, 2050 is space debris in LEO originally from a launch on Fri, 15 Oct 1965 UTC launched from the Air Force Eastern Test Range (AFETR). Debris objects in space refer to the collection of defunct objects orbiting the Earth. Examples of debris include non-operational satellites, rocket bodies, and fragments generated from explosions, collisions, or faulty payload assembly.

Loading next visibility...
Identifier
2050, 1965-082JL
Orbit
LEO
Last TLE update
8 hours ago
Origin
Manufacturer
Unknown
Mission
Spacecraft
Bus & Motor
Unknown
Mass
Unknown
Launch date (UTC)
1965-10-15 (60 years ago)
Launch vehicle
Unknown
Launch site
Air Force Eastern Test Range (AFETR)
Object type
Payload
Rocket body
Debris
Shape & HBR
Unknown
Radar Cross Section
Small (<0.1 m²)

Expand to show TLE details & history

TLE from 8 hours ago
0 TITAN 3C TRANSTAGE DEB
1  2050U 65082JL  25171.11129847  .00000465  00000-0  10255-3 0  9998
2  2050  32.2625 180.3699 0083659 121.4508 239.4346 14.51025923126706
Epoch: 2025-06-20T02:40Z
TLE epoch observation values (Epoch: 2025-06-20T02:40:16.187Z)
Latitude
-0.00002°
Longitude
-128.2669°
Altitude
751.535 km
Speed
7.465 km/s
True Right ascension
12h 01m 28s
True Declination
0° 00' 00"
Sunlit
Object was in daylight at epoch
Visualization orbit readout
Latitude
-19.50951°
Longitude
-164.15612°
Altitude
782.19 km
Speed
7.434 km/s
Apparent Right ascension
09h 38m 48s
Apparent Declination
-28° 57' 57"
Sunlit
Object is in daylight
Visualization observer readout
Local Sidereal Time
21:40:00
Azimuth
1.397° NNE
Elevation
-79.047°
Doppler factor
1
Orbital elements
Apogee altitude
785.289 km
Perigee altitude
666.426 km
Semi-major axis
7,103.994 km
Eccentricity
0.00837
Inclination
32.2625°
RAAN
180.3699°
Arg. of periapsis
121.4508°
True anomaly
Unknown
Mean anomaly
239.4346°
Eccentric anomaly
Unknown
Mean motion
3.62484 °/min
Orbital period
99.31 mins
BSTAR
0.00010255
Loading maneuver chart data...
Loading SW <> Apogee altitude chart data...

TITAN 3C TRANSTAGE DEB Visibility forecast

Observer location: undefined°, undefined°

Span
Click to sort rows by Start time (UTC) header in descending order
Start Az.
Max El. time (UTC)
Max El. Az.
Max El.
End time (UTC)
End Az.
4 mins2025-06-21 03:39:53.089Z182.843° SSW2025-06-21 03:41:53.089Z157.265° SSE14.726°2025-06-21 03:43:53.089Z131.201° SE
6 mins2025-06-21 05:23:53.089Z215.404° SW2025-06-21 05:26:53.089Z159.702° S25.774°2025-06-21 05:29:53.089Z115.856° SE
7 mins2025-06-21 07:07:53.089Z239.687° WSW2025-06-21 07:10:53.089Z189.635° SSW27.897°2025-06-21 07:14:53.089Z125.565° SE
5 mins2025-06-21 08:53:53.089Z225.824° WSW2025-06-21 08:55:53.089Z194.384° SSW18.011°2025-06-21 08:58:53.089Z155.324° SSE
|